This demonstration page uses our WeatherBlox Daily Observations layout. Learn more.

Left ArrowRight Arrow

38.88101, -77.10428

Hourly Observations for January 4, 2022

Temp ( °F °C ) Dew Point ( °F °C ) Humidity (%) Winds ( mph kmh ) Pressure ( in mb ) Visibility ( mi km ) Precip ( " mm )
12:52 am 00:52 Clear 27 -2.8 17 -8.3 66 66 NNW 13 20 30.36 1028 10 16 0.00 0.00
1:52 am 01:52 Clear 27 -2.8 17 -8.3 66 66 NNW 9 15 30.39 1029 10 16 0.00 0.00
2:52 am 02:52 Clear 27 -2.8 16 -8.9 63 63 NW 7 11 30.42 1030 10 16 0.00 0.00
3:52 am 03:52 Clear 27 -2.8 16 -8.9 63 63 N 3 6 30.43 1030 10 16 0.00 0.00
4:52 am 04:52 Clear 27 -2.8 17 -8.3 66 66 NNW 3 6 30.43 1031 10 16 0.00 0.00
5:52 am 05:52 Clear 27 -2.8 16 -8.9 63 63 ENE 6 9 30.44 1031 10 16 0.00 0.00
6:52 am 06:52 Clear 27 -2.8 15 -9.4 61 61 NNE 3 6 30.45 1031 10 16 0.00 0.00
7:52 am 07:52 Mostly Sunny 27 -2.8 18 -7.8 69 69 ENE 6 9 30.47 1032 10 16 0.00 0.00
8:52 am 08:52 Mostly Sunny 27 -2.8 17 -8.3 66 66 Calm 30.48 1032 10 16 0.00 0.00
9:52 am 09:52 Mostly Sunny 29 -1.7 16 -8.9 58 58 SSE 5 7 30.49 1033 10 16 0.00 0.00
10:52 am 10:52 Mostly Sunny 34 1.1 17 -8.3 50 50 Calm 30.50 1033 10 16 0.00 0.00
11:52 am 11:52 Mostly Sunny 32 0 17 -8.3 54 54 Calm 30.47 1032 10 16 0.00 0.00
12:52 pm 12:52 Partly Cloudy 32 0 18 -7.8 56 56 SSW 3 6 30.44 1031 10 16 0.00 0.00
1:52 pm 13:52 Partly Cloudy 33 0.6 20 -6.7 58 58 SSW 7 11 30.42 1030 10 16 0.00 0.00
2:52 pm 14:52 Partly Cloudy 34 1.1 21 -6.1 59 59 SSW 9 15 30.42 1030 10 16 0.00 0.00
3:52 pm 15:52 Partly Cloudy 34 1.1 22 -5.6 61 61 SSW 10 17 30.42 1030 10 16 0.00 0.00
4:52 pm 16:52 Mostly Cloudy 34 1.1 23 -5 64 64 SSW 9 15 30.39 1029 10 16 0.00 0.00
5:52 pm 17:52 Partly Cloudy 33 0.6 24 -4.4 70 70 SSE 7 11 30.38 1029 10 16 0.00 0.00
6:52 pm 18:52 Mostly Clear 32 0 24 -4.4 73 73 SSE 9 15 30.36 1028 10 16 0.00 0.00
7:52 pm 19:52 Clear 32 0 24 -4.4 73 73 S 9 15 30.35 1028 10 16 0.00 0.00
8:52 pm 20:52 Clear 31 -0.6 24 -4.4 76 76 SE 7 11 30.33 1027 10 16 0.00 0.00
9:52 pm 21:52 Clear 31 -0.6 24 -4.4 76 76 SSE 7 11 30.32 1027 10 16 0.00 0.00
10:52 pm 22:52 Clear 30 -1.1 24 -4.4 79 79 SSE 7 11 30.31 1026 10 16 0.00 0.00
11:52 pm 23:52 Clear 29 -1.7 23 -5 78 78 Calm 30.27 1025 10 16 0.00 0.00

Powered by AerisWeather